Austin Bergstrom, TX

12:18 PM CDT on July 26, 2017 (GMT -0500)
Austin Bergstrom International

Weather History for KAUS - January, 2013

Change the Weather History Date:

Monday, January 14, 2013

  Actual Average Record
Temperature  
Mean Temperature 42 °F 49 °F  
Max Temperature 49 °F 62 °F 79 °F (1980)
Min Temperature 35 °F 36 °F 11 °F (1964)
Degree Days  
Heating Degree Days 23 16  
Month to date heating degree days 258 224  
Since 1 July heating degree days 869 971  
Cooling Degree Days 0 0  
Month to date cooling degree days 0 0  
Year to date cooling degree days 0 0  
Moisture  
Dew Point 26 °F    
Average Humidity 55    
Maximum Humidity 64    
Minimum Humidity 46    
Precipitation  
Precipitation T in 0.07 in 0.90 in (1946)
Month to date precipitation 2.64 1.04  
Year to date precipitation 2.64 1.04  
Snow  
Snow 0.00 in - - ()
Month to date snowfall T  
Since 1 July snowfall T  
Snow Depth 0.00 in    
Sea Level Pressure  
Sea Level Pressure 30.19 in    
Wind  
Wind Speed 16 mph (NNE)    
Max Wind Speed 22 mph    
Max Gust Speed 26 mph    
Visibility 10 miles    
Events Rain    
T = Trace of Precipitation, MM = Missing Value Source: NWS Daily Summary

Daily Weather History Graph

Daily Weather History Graph

Search for Another Location

Airport or City:

Trip Planner

Search our weather history database for the weather conditions in past years. The results will help you decide how hot, cold, wet, or windy it might be!

Date:

Astronomy

Jan. 14, 2013 Rise Set
Actual Time 7:27 AM CST 5:52 PM CST
Civil Twilight 7:01 AM CST 6:18 PM CST
Nautical Twilight 6:32 AM CST 6:47 PM CST
Astronomical Twilight 6:03 AM CST 7:16 PM CST
Moon 9:19 AM CST (1/14) 9:19 PM CST (1/14)
Length of Visible Light 11h 16m
Length of Day
10h 24m
Waxing Crescent, 11% of the Moon is Illuminated
Jan 14
Waxing Crescent
Jan 18
First Quarter
Jan 26
Full
Feb 3
Last Quarter
Feb 10
New

Hourly Weather History & Observations

Time (CST) Temp. Windchill Dew Point Humidity Pressure Visibility Wind Dir Wind Speed Gust Speed Precip Events Conditions
12:53 AM 37.4 °F 28.9 °F 24.8 °F 60% 30.17 in 10.0 mi North 13.8 mph 23.0 mph N/A   Clear
1:53 AM 36.0 °F 26.0 °F 23.0 °F 59% 30.21 in 10.0 mi North 17.3 mph - N/A   Mostly Cloudy
2:53 AM 36.0 °F 25.3 °F 21.9 °F 57% 30.20 in 10.0 mi North 19.6 mph - N/A   Overcast
3:38 AM 35.6 °F 24.5 °F 21.2 °F 56% 30.21 in 10.0 mi North 20.7 mph 25.3 mph 0.00 in Rain Ice Pellets
3:53 AM 36.0 °F 26.7 °F 23.0 °F 59% 30.23 in 10.0 mi North 15.0 mph - 0.00 in   Overcast
4:53 AM 35.1 °F 24.1 °F 23.0 °F 61% 30.21 in 10.0 mi North 19.6 mph - N/A   Overcast
5:53 AM 35.1 °F 23.8 °F 21.9 °F 59% 30.22 in 10.0 mi North 20.7 mph - N/A   Overcast
6:38 AM 35.6 °F 25.2 °F 23.0 °F 60% 30.20 in 10.0 mi North 18.4 mph - N/A   Overcast
6:53 AM 35.1 °F 24.8 °F 23.0 °F 61% 30.22 in 10.0 mi North 17.3 mph 26.5 mph N/A   Overcast
7:53 AM 35.1 °F 24.5 °F 24.1 °F 64% 30.25 in 10.0 mi North 18.4 mph - N/A   Overcast
8:53 AM 36.0 °F 26.3 °F 25.0 °F 64% 30.27 in 10.0 mi North 16.1 mph 24.2 mph N/A   Overcast
9:53 AM 37.0 °F 27.4 °F 25.0 °F 62% 30.27 in 10.0 mi NE 17.3 mph - N/A   Mostly Cloudy
10:53 AM 39.9 °F 30.8 °F 25.0 °F 55% 30.27 in 10.0 mi NNE 18.4 mph - N/A   Mostly Cloudy
11:53 AM 42.1 °F 34.5 °F 26.1 °F 53% 30.23 in 10.0 mi North 15.0 mph 21.9 mph N/A   Mostly Cloudy
12:53 PM 45.0 °F 37.9 °F 28.0 °F 52% 30.19 in 10.0 mi NNE 16.1 mph 23.0 mph N/A   Mostly Cloudy
1:53 PM 46.9 °F - 28.0 °F 48% 30.17 in 10.0 mi NNE 16.1 mph - N/A   Mostly Cloudy
2:53 PM 48.0 °F - 28.9 °F 48% 30.15 in 10.0 mi NE 16.1 mph - N/A   Mostly Cloudy
3:53 PM 48.0 °F - 30.0 °F 50% 30.15 in 10.0 mi NNE 15.0 mph - N/A   Mostly Cloudy
4:53 PM 46.0 °F 39.3 °F 30.0 °F 54% 30.16 in 10.0 mi NNE 16.1 mph - N/A   Mostly Cloudy
5:53 PM 45.0 °F 39.3 °F 30.0 °F 56% 30.17 in 10.0 mi NE 11.5 mph - N/A   Mostly Cloudy
6:53 PM 43.0 °F 36.4 °F 30.9 °F 62% 30.17 in 10.0 mi NNE 12.7 mph - N/A   Mostly Cloudy
7:53 PM 44.1 °F 37.4 °F 30.0 °F 58% 30.17 in 10.0 mi NNE 13.8 mph - N/A   Overcast
8:53 PM 44.1 °F 38.1 °F 30.9 °F 60% 30.16 in 10.0 mi NNE 11.5 mph - N/A   Overcast
9:53 PM 44.1 °F 37.1 °F 30.0 °F 58% 30.16 in 10.0 mi NNE 15.0 mph - N/A   Overcast
10:53 PM 43.0 °F 36.0 °F 30.0 °F 60% 30.15 in 10.0 mi NNE 13.8 mph - N/A   Overcast
11:53 PM 42.1 °F 34.9 °F 30.0 °F 62% 30.11 in 10.0 mi NE 13.8 mph - N/A   Overcast